Time,TemperatureF,DewpointF,PressureIn,WindDirection,WindDirectionDegrees,WindSpeedMPH,WindSpeedGustMPH,Humidity,HourlyPrecipIn,Conditions,Clouds,dailyrainin,SoftwareType,DateUTC
2013-06-28 00:14:00,84.5,58.0,30.01,North,5,0.0,-999.0,40,-99.99,,,0.00,weatherlink.com 1.10,2013-06-28 07:14:00,
2013-06-28 00:25:00,84.4,58.0,30.01,North,360,0.0,-999.0,40,-99.99,,,0.00,weatherlink.com 1.10,2013-06-28 07:25:00,
2013-06-28 00:40:00,84.3,57.0,30.00,North,5,0.0,-999.0,40,-99.99,,,0.00,weatherlink.com 1.10,2013-06-28 07:40:00,
2013-06-28 00:55:00,83.9,58.0,30.00,North,5,0.0,-999.0,41,-99.99,,,0.00,weatherlink.com 1.10,2013-06-28 07:55:00,
2013-06-28 01:14:00,83.6,58.0,30.00,North,360,0.0,-999.0,42,-99.99,,,0.00,weatherlink.com 1.10,2013-06-28 08:14:00,
2013-06-28 01:25:00,83.1,58.0,30.00,North,360,0.0,-999.0,42,-99.99,,,0.00,weatherlink.com 1.10,2013-06-28 08:25:00,
2013-06-28 01:40:00,83.1,58.0,30.00,North,360,0.0,-999.0,42,-99.99,,,0.00,weatherlink.com 1.10,2013-06-28 08:40:00,
2013-06-28 01:55:00,83.1,57.0,29.99,North,5,0.0,-999.0,41,-99.99,,,0.00,weatherlink.com 1.10,2013-06-28 08:55:00,
2013-06-28 02:14:00,83.5,57.0,29.99,North,360,0.0,-999.0,41,-99.99,,,0.00,weatherlink.com 1.10,2013-06-28 09:14:00,
2013-06-28 02:25:00,83.9,58.0,29.98,North,5,0.0,-999.0,41,-99.99,,,0.00,weatherlink.com 1.10,2013-06-28 09:25:00,
2013-06-28 02:40:00,83.7,58.0,29.98,North,5,0.0,-999.0,41,-99.99,,,0.00,weatherlink.com 1.10,2013-06-28 09:40:00,
2013-06-28 02:55:00,83.3,57.0,29.98,North,5,0.0,-999.0,41,-99.99,,,0.00,weatherlink.com 1.10,2013-06-28 09:55:00,
2013-06-28 03:14:00,83.3,57.0,29.97,North,5,0.0,-999.0,41,-99.99,,,0.00,weatherlink.com 1.10,2013-06-28 10:14:00,
2013-06-28 03:25:00,83.1,58.0,29.97,North,5,0.0,-999.0,42,-99.99,,,0.00,weatherlink.com 1.10,2013-06-28 10:25:00,
2013-06-28 03:40:00,82.6,57.0,29.96,North,5,0.0,-999.0,42,-99.99,,,0.00,weatherlink.com 1.10,2013-06-28 10:40:00,
2013-06-28 03:55:00,82.3,58.0,29.96,North,360,0.0,-999.0,43,-99.99,,,0.00,weatherlink.com 1.10,2013-06-28 10:55:00,
2013-06-28 04:14:00,82.4,58.0,29.96,North,5,0.0,-999.0,43,-99.99,,,0.00,weatherlink.com 1.10,2013-06-28 11:14:00,
2013-06-28 04:25:00,82.7,57.0,29.96,North,5,0.0,-999.0,42,-99.99,,,0.00,weatherlink.com 1.10,2013-06-28 11:25:00,
2013-06-28 04:40:00,83.4,57.0,29.96,North,360,0.0,-999.0,41,-99.99,,,0.00,weatherlink.com 1.10,2013-06-28 11:40:00,
2013-06-28 04:55:00,83.9,58.0,29.96,North,360,0.0,-999.0,41,-99.99,,,0.00,weatherlink.com 1.10,2013-06-28 11:55:00,
2013-06-28 05:14:00,83.9,58.0,29.96,North,360,0.0,-999.0,41,-99.99,,,0.00,weatherlink.com 1.10,2013-06-28 12:14:00,
2013-06-28 05:25:00,83.9,58.0,29.96,North,5,0.0,-999.0,41,-99.99,,,0.00,weatherlink.com 1.10,2013-06-28 12:25:00,
2013-06-28 05:40:00,83.5,57.0,29.97,North,5,0.0,-999.0,41,-99.99,,,0.00,weatherlink.com 1.10,2013-06-28 12:40:00,
2013-06-28 05:55:00,82.6,57.0,29.97,North,360,0.0,-999.0,42,-99.99,,,0.00,weatherlink.com 1.10,2013-06-28 12:55:00,
2013-06-28 06:14:00,82.3,58.0,29.96,North,360,0.0,-999.0,43,-99.99,,,0.00,weatherlink.com 1.10,2013-06-28 13:14:00,
2013-06-28 06:25:00,81.4,57.0,29.96,North,360,0.0,-999.0,44,-99.99,,,0.00,weatherlink.com 1.10,2013-06-28 13:25:00,
2013-06-28 06:40:00,81.2,57.0,29.97,North,360,0.0,-999.0,44,-99.99,,,0.00,weatherlink.com 1.10,2013-06-28 13:40:00,
2013-06-28 06:55:00,80.9,56.0,29.98,North,5,0.0,-999.0,43,-99.99,,,0.00,weatherlink.com 1.10,2013-06-28 13:55:00,
2013-06-28 07:14:00,80.9,56.0,29.98,North,5,0.0,-999.0,42,-99.99,,,0.00,weatherlink.com 1.10,2013-06-28 14:14:00,
2013-06-28 07:25:00,81.8,57.0,29.98,North,5,0.0,-999.0,43,-99.99,,,0.00,weatherlink.com 1.10,2013-06-28 14:25:00,
2013-06-28 07:40:00,83.1,57.0,29.99,North,5,1.0,-999.0,41,-99.99,,,0.00,weatherlink.com 1.10,2013-06-28 14:40:00,
2013-06-28 07:55:00,83.7,58.0,29.99,North,5,0.0,-999.0,42,-99.99,,,0.00,weatherlink.com 1.10,2013-06-28 14:55:00,
2013-06-28 08:14:00,84.3,58.0,29.99,North,5,0.0,-999.0,41,-99.99,,,0.00,weatherlink.com 1.10,2013-06-28 15:14:00,
2013-06-28 08:25:00,85.7,60.0,29.99,North,5,0.0,-999.0,42,-99.99,,,0.00,weatherlink.com 1.10,2013-06-28 15:25:00,
2013-06-28 08:40:00,86.6,60.0,29.99,North,5,0.0,-999.0,41,-99.99,,,0.00,weatherlink.com 1.10,2013-06-28 15:40:00,
2013-06-28 08:55:00,86.2,58.0,29.99,North,5,0.0,-999.0,39,-99.99,,,0.00,weatherlink.com 1.10,2013-06-28 15:55:00,
2013-06-28 09:10:00,84.7,58.0,29.99,North,360,0.0,-999.0,40,-99.99,,,0.00,weatherlink.com 1.10,2013-06-28 16:10:00,
2013-06-28 09:24:00,85.9,60.0,29.99,North,5,0.0,-999.0,41,-99.99,,,0.00,weatherlink.com 1.10,2013-06-28 16:24:00,
2013-06-28 09:39:00,85.5,60.0,29.98,North,360,0.0,-999.0,42,-99.99,,,0.00,weatherlink.com 1.10,2013-06-28 16:39:00,
2013-06-28 09:54:00,86.7,60.0,29.99,North,360,0.0,-999.0,41,-99.99,,,0.00,weatherlink.com 1.10,2013-06-28 16:54:00,
2013-06-28 10:14:00,87.1,60.0,29.98,North,360,0.0,-999.0,40,-99.99,,,0.00,weatherlink.com 1.10,2013-06-28 17:14:00,
2013-06-28 10:25:00,87.3,59.0,29.99,North,360,0.0,-999.0,39,-99.99,,,0.00,weatherlink.com 1.10,2013-06-28 17:25:00,
2013-06-28 10:40:00,87.8,60.0,29.99,North,355,0.0,-999.0,39,-99.99,,,0.00,weatherlink.com 1.10,2013-06-28 17:40:00,
2013-06-28 10:55:00,87.6,60.0,29.99,NNW,329,0.0,-999.0,39,-99.99,,,0.00,weatherlink.com 1.10,2013-06-28 17:55:00,
2013-06-28 11:14:00,88.9,61.0,29.99,SSE,147,0.0,-999.0,39,-99.99,,,0.00,weatherlink.com 1.10,2013-06-28 18:14:00,
2013-06-28 11:25:00,89.0,59.0,29.98,West,270,0.0,-999.0,37,-99.99,,,0.00,weatherlink.com 1.10,2013-06-28 18:25:00,
2013-06-28 11:40:00,90.3,60.0,29.99,West,271,0.0,-999.0,36,-99.99,,,0.00,weatherlink.com 1.10,2013-06-28 18:40:00,
2013-06-28 11:54:00,90.0,60.0,29.99,West,271,0.0,-999.0,36,-99.99,,,0.00,weatherlink.com 1.10,2013-06-28 18:54:00,
2013-06-28 12:14:00,89.7,60.0,29.98,West,271,1.0,-999.0,37,-99.99,,,0.00,weatherlink.com 1.10,2013-06-28 19:14:00,
2013-06-28 12:25:00,89.3,60.0,29.99,West,259,0.0,-999.0,38,-99.99,,,0.00,weatherlink.com 1.10,2013-06-28 19:25:00,
2013-06-28 12:40:00,88.8,59.0,29.98,WSW,254,0.0,-999.0,37,-99.99,,,0.00,weatherlink.com 1.10,2013-06-28 19:40:00,
2013-06-28 12:55:00,89.1,60.0,29.98,West,261,0.0,-999.0,38,-99.99,,,0.00,weatherlink.com 1.10,2013-06-28 19:55:00,
2013-06-28 13:10:00,87.7,59.0,29.97,West,259,0.0,-999.0,38,-99.99,,,0.00,weatherlink.com 1.10,2013-06-28 20:10:00,
2013-06-28 13:25:00,89.1,60.0,29.97,West,259,1.0,-999.0,37,-99.99,,,0.00,weatherlink.com 1.10,2013-06-28 20:25:00,
2013-06-28 13:40:00,90.9,60.0,29.97,SSW,205,0.0,-999.0,36,-99.99,,,0.00,weatherlink.com 1.10,2013-06-28 20:40:00,
2013-06-28 13:54:00,89.7,60.0,29.97,WSW,245,0.0,-999.0,37,-99.99,,,0.00,weatherlink.com 1.10,2013-06-28 20:54:00,
2013-06-28 14:15:00,89.2,60.0,29.96,WSW,246,1.0,-999.0,37,-99.99,,,0.00,weatherlink.com 1.10,2013-06-28 21:15:00,
2013-06-28 14:25:00,90.6,59.0,29.96,WSW,245,0.0,-999.0,35,-99.99,,,0.00,weatherlink.com 1.10,2013-06-28 21:25:00,
2013-06-28 14:40:00,89.6,60.0,29.95,WSW,252,1.0,-999.0,37,-99.99,,,0.00,weatherlink.com 1.10,2013-06-28 21:40:00,
2013-06-28 14:55:00,91.2,60.0,29.95,WSW,254,0.0,-999.0,35,-99.99,,,0.00,weatherlink.com 1.10,2013-06-28 21:55:00,
2013-06-28 15:12:00,91.2,59.0,29.94,WSW,252,0.0,-999.0,34,-99.99,,,0.00,weatherlink.com 1.10,2013-06-28 22:12:00,
2013-06-28 15:25:00,93.3,59.0,29.94,WSW,247,0.0,-999.0,32,-99.99,,,0.00,weatherlink.com 1.10,2013-06-28 22:25:00,
2013-06-28 15:40:00,94.5,59.0,29.93,WSW,250,0.0,-999.0,30,-99.99,,,0.00,weatherlink.com 1.10,2013-06-28 22:40:00,
2013-06-28 15:55:00,94.1,58.0,29.93,WSW,257,0.0,-999.0,30,-99.99,,,0.00,weatherlink.com 1.10,2013-06-28 22:55:00,
2013-06-28 16:14:00,93.7,57.0,29.92,SE,139,1.0,-999.0,29,-99.99,,,0.00,weatherlink.com 1.10,2013-06-28 23:14:00,
2013-06-28 16:24:00,95.2,58.0,29.91,SSW,198,0.0,-999.0,29,-99.99,,,0.00,weatherlink.com 1.10,2013-06-28 23:24:00,
2013-06-28 16:39:00,94.3,57.0,29.91,SSW,200,0.0,-999.0,28,-99.99,,,0.00,weatherlink.com 1.10,2013-06-28 23:39:00,
2013-06-28 16:54:00,93.7,55.0,29.90,South,178,0.0,-999.0,27,-99.99,,,0.00,weatherlink.com 1.10,2013-06-28 23:54:00,
2013-06-28 17:14:00,92.6,56.0,29.90,South,176,0.0,-999.0,29,-99.99,,,0.00,weatherlink.com 1.10,2013-06-29 00:14:00,
2013-06-28 17:25:00,91.1,56.0,29.90,SSW,200,0.0,-999.0,30,-99.99,,,0.00,weatherlink.com 1.10,2013-06-29 00:25:00,
2013-06-28 17:40:00,92.3,56.0,29.89,SSW,202,0.0,-999.0,29,-99.99,,,0.00,weatherlink.com 1.10,2013-06-29 00:40:00,
2013-06-28 17:55:00,91.6,57.0,29.89,SSW,203,0.0,-999.0,31,-99.99,,,0.00,weatherlink.com 1.10,2013-06-29 00:55:00,
2013-06-28 18:14:00,92.1,57.0,29.89,SSW,206,0.0,-999.0,31,-99.99,,,0.00,weatherlink.com 1.10,2013-06-29 01:14:00,
2013-06-28 18:25:00,92.0,56.0,29.88,SSW,204,0.0,-999.0,30,-99.99,,,0.00,weatherlink.com 1.10,2013-06-29 01:25:00,
2013-06-28 18:40:00,91.1,57.0,29.88,SE,145,0.0,-999.0,31,-99.99,,,0.00,weatherlink.com 1.10,2013-06-29 01:40:00,
2013-06-28 18:55:00,91.8,54.0,29.88,SE,145,0.0,-999.0,28,-99.99,,,0.00,weatherlink.com 1.10,2013-06-29 01:55:00,
2013-06-28 19:14:00,92.0,54.0,29.89,East,86,0.0,-999.0,27,-99.99,,,0.00,weatherlink.com 1.10,2013-06-29 02:14:00,
2013-06-28 19:25:00,91.6,53.0,29.88,NE,51,3.0,-999.0,27,-99.99,,,0.00,weatherlink.com 1.10,2013-06-29 02:25:00,
2013-06-28 19:40:00,90.7,53.0,29.89,NE,34,1.0,-999.0,28,-99.99,,,0.00,weatherlink.com 1.10,2013-06-29 02:40:00,
2013-06-28 19:55:00,89.7,53.0,29.89,NE,41,6.0,-999.0,29,-99.99,,,0.00,weatherlink.com 1.10,2013-06-29 02:55:00,
2013-06-28 20:14:00,89.2,53.0,29.89,NNE,19,3.0,-999.0,29,-99.99,,,0.00,weatherlink.com 1.10,2013-06-29 03:14:00,
2013-06-28 20:25:00,88.0,53.0,29.88,NNE,24,5.0,-999.0,30,-99.99,,,0.00,weatherlink.com 1.10,2013-06-29 03:25:00,
2013-06-28 20:40:00,87.6,52.0,29.88,NNE,14,7.0,-999.0,29,-99.99,,,0.00,weatherlink.com 1.10,2013-06-29 03:40:00,
2013-06-28 20:55:00,87.1,51.0,29.89,NNW,337,9.0,-999.0,29,-99.99,,,0.00,weatherlink.com 1.10,2013-06-29 03:55:00,
2013-06-28 21:10:00,86.8,54.0,29.89,NNE,33,10.0,-999.0,32,-99.99,,,0.00,weatherlink.com 1.10,2013-06-29 04:10:00,
2013-06-28 21:25:00,86.6,54.0,29.89,NW,323,5.0,-999.0,33,-99.99,,,0.00,weatherlink.com 1.10,2013-06-29 04:25:00,
2013-06-28 21:39:00,86.5,52.0,29.89,ENE,59,11.0,-999.0,31,-99.99,,,0.00,weatherlink.com 1.10,2013-06-29 04:39:00,
2013-06-28 21:55:00,86.5,51.0,29.90,NE,37,10.0,-999.0,29,-99.99,,,0.00,weatherlink.com 1.10,2013-06-29 04:55:00,
2013-06-28 22:14:00,86.4,50.0,29.90,North,10,16.0,-999.0,28,-99.99,,,0.00,weatherlink.com 1.10,2013-06-29 05:14:00,
2013-06-28 22:24:00,86.4,48.0,29.90,NNE,14,7.0,-999.0,26,-99.99,,,0.00,weatherlink.com 1.10,2013-06-29 05:24:00,
2013-06-28 22:39:00,86.4,47.0,29.90,NNW,346,15.0,-999.0,25,-99.99,,,0.00,weatherlink.com 1.10,2013-06-29 05:39:00,
2013-06-28 22:54:00,86.3,45.0,29.90,North,360,9.0,-999.0,24,-99.99,,,0.00,weatherlink.com 1.10,2013-06-29 05:54:00,
2013-06-28 23:14:00,86.3,44.0,29.90,NNE,22,5.0,-999.0,23,-99.99,,,0.00,weatherlink.com 1.10,2013-06-29 06:14:00,
2013-06-28 23:25:00,86.3,42.0,29.90,NE,50,16.0,-999.0,21,-99.99,,,0.00,weatherlink.com 1.10,2013-06-29 06:25:00,
2013-06-28 23:40:00,86.4,42.0,29.90,NNE,22,13.0,-999.0,21,-99.99,,,0.00,weatherlink.com 1.10,2013-06-29 06:40:00,
2013-06-28 23:59:00,86.4,42.0,29.91,NE,51,4.0,-999.0,21,-99.99,,,0.00,weatherlink.com 1.10,2013-06-29 06:59:00,